| time (UTC) | temp C | wind direction | speed KPH | gust KPH | rain 1hr cm | rain 24hr cm | rain mn cm | humidity % | barometer mb |
| 20260502210009 | 19 | 355 | 0.0 | 8.0 | 0.00 | 0.00 | 0.00 | 34 | 1014.4 |
| 20260502204504 | 18 | 16 | 3.2 | 24.1 | 0.00 | 0.00 | 0.00 | 34 | 1014.6 |
| 20260502203104 | 19 | 250 | 0.0 | 19.3 | 0.00 | 0.00 | 0.00 | 36 | 1014.6 |
| 20260502201558 | 20 | 302 | 0.0 | 1.6 | 0.00 | 0.00 | 0.00 | 37 | 1014.6 |
| 20260502200058 | 19 | 25 | 8.0 | 24.1 | 0.00 | 0.00 | 0.00 | 37 | 1014.9 |
| 20260502194556 | 18 | 207 | 1.6 | 14.5 | 0.00 | 0.00 | 0.00 | 36 | 1014.9 |
| 20260502193024 | 18 | 90 | 0.0 | 8.0 | 0.00 | 0.00 | 0.00 | 36 | 1015.1 |
| 20260502191522 | 18 | 345 | 4.8 | 27.4 | 0.00 | 0.00 | 0.00 | 36 | 1015.2 |
| 20260502190018 | 18 | 88 | 1.6 | 24.1 | 0.00 | 0.00 | 0.00 | 35 | 1015.4 |
| 20260502184519 | 18 | 13 | 6.4 | 22.5 | 0.00 | 0.00 | 0.00 | 36 | 1015.5 |
| 20260502183017 | 18 | 4.8 | 25.7 | 0.00 | 0.00 | 0.00 | 37 | 1015.5 | |
| 20260502181513 | 17 | 169 | 0.0 | 14.5 | 0.00 | 0.00 | 0.00 | 41 | 1015.8 |
| 20260502170103 | 15 | 139 | 0.0 | 19.3 | 0.00 | 0.00 | 0.00 | 48 | 1016.1 |
| 20260502163052 | 15 | 34 | 3.2 | 22.5 | 0.00 | 0.00 | 0.00 | 48 | 1016.0 |
| 20260502161550 | 14 | 27 | 16.1 | 29.0 | 0.00 | 0.00 | 0.00 | 45 | 1015.9 |
| 20260502151543 | 13 | 166 | 1.6 | 11.3 | 0.00 | 0.00 | 0.00 | 44 | 1015.5 |
| 20260502123056 | 6 | 149 | 0.0 | 0.0 | 0.00 | 0.00 | 0.00 | 64 | 1014.0 |
| 20260502121555 | 6 | 148 | 0.0 | 0.0 | 0.00 | 0.00 | 0.00 | 62 | 1014.0 |
| 20260502114551 | 6 | 21 | 0.0 | 0.0 | 0.00 | 0.00 | 0.00 | 63 | 1014.0 |
| 20260502113048 | 6 | 64 | 0.0 | 0.0 | 0.00 | 0.00 | 0.00 | 62 | 1013.9 |
| 20260502111517 | 7 | 255 | 0.0 | 0.0 | 0.00 | 0.00 | 0.00 | 61 | 1013.7 |
| 20260502110018 | 6 | 84 | 0.0 | 0.0 | 0.00 | 0.00 | 0.00 | 62 | 1013.7 |
| 20260502104513 | 6 | 139 | 0.0 | 0.0 | 0.00 | 0.00 | 0.00 | 62 | 1013.6 |
| 20260502103012 | 7 | 149 | 0.0 | 6.4 | 0.00 | 0.00 | 0.00 | 57 | 1013.5 |
| 20260502101513 | 8 | 12 | 0.0 | 8.0 | 0.00 | 0.00 | 0.00 | 56 | 1013.6 |
| 20260502091533 | 8 | 311 | 0.0 | 0.0 | 0.00 | 0.00 | 0.00 | 59 | 1013.1 |
| 20260502071507 | 10 | 56 | 0.0 | 0.0 | 0.00 | 0.00 | 0.00 | 52 | 1014.1 |
| 20260502070017 | 11 | 205 | 0.0 | 4.8 | 0.00 | 0.00 | 0.00 | 49 | 1014.2 |
| 20260502064505 | 10 | 0.0 | 3.2 | 0.00 | 0.00 | 0.00 | 51 | 1014.2 | |
| 20260502063102 | 11 | 229 | 0.0 | 6.4 | 0.00 | 0.00 | 0.00 | 51 | 1014.3 |
| 20260502061556 | 11 | 13 | 0.0 | 0.0 | 0.00 | 0.00 | 0.00 | 49 | 1014.4 |
| 20260502060056 | 11 | 30 | 0.0 | 1.6 | 0.00 | 0.00 | 0.00 | 49 | 1014.5 |
| 20260502054601 | 11 | 20 | 0.0 | 6.4 | 0.00 | 0.00 | 0.00 | 48 | 1014.5 |
| 20260502053055 | 12 | 237 | 0.0 | 11.3 | 0.00 | 0.00 | 0.00 | 48 | 1014.6 |
| 20260502051545 | 12 | 153 | 0.0 | 1.6 | 0.00 | 0.00 | 0.00 | 47 | 1014.8 |
| 20260502050042 | 12 | 31 | 0.0 | 6.4 | 0.00 | 0.00 | 0.00 | 45 | 1014.9 |
| 20260502044540 | 12 | 20 | 0.0 | 0.0 | 0.00 | 0.00 | 0.00 | 44 | 1014.9 |
| 20260502043038 | 12 | 338 | 0.0 | 0.0 | 0.00 | 0.00 | 0.00 | 45 | 1015.1 |
| 20260502041534 | 13 | 352 | 0.0 | 0.0 | 0.00 | 0.00 | 0.00 | 44 | 1015.1 |
| 20260502040032 | 13 | 136 | 0.0 | 0.0 | 0.00 | 0.00 | 0.00 | 43 | 1015.1 |
| 20260502034529 | 13 | 135 | 0.0 | 0.0 | 0.00 | 0.00 | 0.00 | 41 | 1015.1 |
| 20260502033032 | 14 | 211 | 0.0 | 0.0 | 0.00 | 0.00 | 0.00 | 40 | 1014.9 |
| 20260502031522 | 14 | 204 | 0.0 | 0.0 | 0.00 | 0.00 | 0.00 | 40 | 1014.8 |
| 20260502030021 | 15 | 349 | 0.0 | 0.0 | 0.00 | 0.00 | 0.00 | 37 | 1014.8 |
| 20260502024519 | 15 | 86 | 0.0 | 0.0 | 0.00 | 0.00 | 0.00 | 36 | 1014.6 |
| 20260502023019 | 16 | 136 | 0.0 | 0.0 | 0.00 | 0.00 | 0.00 | 35 | 1014.5 |
| 20260502021519 | 17 | 246 | 0.0 | 0.0 | 0.00 | 0.00 | 0.00 | 33 | 1014.6 |
| 20260502021517 | 17 | 95 | 0.0 | 0.0 | 0.00 | 0.00 | 0.00 | 33 | 1014.6 |
| 20260502020015 | 17 | 259 | 0.0 | 0.0 | 0.00 | 0.00 | 0.00 | 33 | 1014.7 |
| 20260502014525 | 19 | 188 | 0.0 | 0.0 | 0.00 | 0.00 | 0.00 | 31 | 1014.7 |
| 20260502013012 | 19 | 233 | 0.0 | 0.0 | 0.00 | 0.00 | 0.00 | 32 | 1014.7 |
| 20260502011512 | 20 | 196 | 0.0 | 0.0 | 0.00 | 0.00 | 0.00 | 29 | 1014.7 |
| 20260502010011 | 20 | 197 | 0.0 | 0.0 | 0.00 | 0.00 | 0.00 | 26 | 1014.9 |
| 20260502004513 | 20 | 287 | 0.0 | 6.4 | 0.00 | 0.00 | 0.00 | 26 | 1014.9 |
| 20260502003007 | 21 | 91 | 0.0 | 0.0 | 0.00 | 0.00 | 0.00 | 24 | 1015.0 |
| 20260502001503 | 21 | 226 | 0.0 | 0.0 | 0.00 | 0.00 | 0.00 | 23 | 1015.2 |
| 20260502000117 | 20 | 200 | 0.0 | 0.0 | 0.00 | 0.00 | 0.00 | 23 | 1015.4 |
| 20260501234559 | 21 | 13 | 0.0 | 0.0 | 0.00 | 0.00 | 0.00 | 23 | 1015.5 |
| 20260501233101 | 21 | 50 | 0.0 | 4.8 | 0.00 | 0.00 | 0.00 | 24 | 1015.5 |
| 20260501231559 | 21 | 255 | 0.0 | 0.0 | 0.00 | 0.00 | 0.00 | 24 | 1015.6 |
| 20260501230053 | 21 | 53 | 0.0 | 0.0 | 0.00 | 0.00 | 0.00 | 23 | 1015.8 |
| 20260501224550 | 21 | 134 | 0.0 | 0.0 | 0.00 | 0.00 | 0.00 | 22 | 1015.9 |
| 20260501223055 | 21 | 288 | 0.0 | 0.0 | 0.00 | 0.00 | 0.00 | 22 | 1016.0 |
| 20260501221545 | 21 | 82 | 0.0 | 11.3 | 0.00 | 0.00 | 0.00 | 21 | 1016.2 |
| 20260501220045 | 20 | 125 | 0.0 | 0.0 | 0.00 | 0.00 | 0.00 | 22 | 1016.4 |
| 20260501214538 | 20 | 201 | 4.8 | 16.1 | 0.00 | 0.00 | 0.00 | 22 | 1016.6 |
| 20260501213044 | 20 | 4.8 | 19.3 | 0.00 | 0.00 | 0.00 | 22 | 1016.8 | |
| 20260501211533 | 20 | 165 | 0.0 | 1.6 | 0.00 | 0.00 | 0.00 | 23 | 1017.0 |